Theta_e
324 323 324 324 324 324 325 326 325 325 326 326 325 325 326 326 327 326 326 327 326 327 328 327 328 327 327 326 324 322 313 297 296 294 296 297 309 326 325 327 328 328 321 298 294 294 294 289 293 292 289 292 292 292 293 291 290 289 284 279 281 278 280 280 279 280 282 280 281 282 282 283 282 283 286 286 286 284 282 282 284 284 285 287 286 284 287 290
323 323 323 323 323 324 325 325 326 326 325 324 324 324 325 325 325 326 326 326 325 326 327 328 327 326 325 325 326 323 299 294 292 292 296 307 325 327 326 325 327 325 312 296 294 293 293 292 291 288 289 292 292 292 292 292 290 284 279 279 284 278 282 280 278 279 282 285 281 281 281 282 283 283 285 285 281 282 283 285 285 287 289 290 289 287 287 288
323 322 322 322 323 323 324 324 325 325 326 325 324 324 324 323 324 324 324 324 326 326 326 328 327 326 324 323 324 323 302 296 294 292 296 322 324 324 324 326 326 326 298 298 296 293 295 293 294 291 287 290 288 289 287 290 292 284 285 282 279 279 282 279 279 281 281 281 281 282 282 281 282 283 284 284 279 279 282 285 282 285 288 290 291 287 287 287
321 321 321 321 322 322 322 323 323 325 325 325 325 323 323 323 323 324 324 323 324 326 325 327 326 325 322 322 324 303 299 295 290 292 295 316 322 323 323 322 328 319 299 298 295 296 291 289 288 291 291 287 286 285 288 287 289 286 281 278 285 280 284 284 279 283 280 282 281 281 280 281 281 281 283 281 283 283 285 286 288 287 287 289 287 286 286 287
322 320 321 320 320 321 321 322 322 323 324 324 324 323 323 323 323 324 324 324 324 325 326 326 326 325 323 322 322 303 298 289 290 293 297 321 322 322 321 324 326 304 299 298 294 292 292 291 290 288 289 288 283 284 284 284 285 281 282 281 283 280 283 284 280 282 280 279 280 279 282 281 281 282 282 280 282 285 283 285 287 289 289 287 286 285 285 286
322 321 321 320 319 320 320 321 321 322 322 323 323 323 323 323 323 323 324 325 324 325 326 324 324 324 323 322 305 304 298 282 292 295 321 319 321 318 321 323 324 297 294 292 293 292 294 291 292 290 284 284 284 284 284 283 284 287 282 279 280 279 284 281 281 280 279 280 279 279 281 281 282 281 279 281 284 287 283 285 283 287 288 285 284 285 284 286
321 321 320 320 319 319 319 319 320 320 321 322 322 322 322 322 322 323 323 323 324 324 326 325 322 322 322 313 299 296 295 291 292 298 315 319 316 316 324 324 313 296 295 295 292 293 289 290 289 285 283 284 283 284 284 283 282 282 282 280 284 280 283 280 282 278 277 280 280 280 283 283 280 282 280 281 287 289 285 282 284 281 283 282 284 283 286 286
320 320 319 320 319 318 318 318 319 319 320 321 322 321 322 322 322 322 322 323 323 324 324 325 324 321 319 302 301 291 288 291 294 296 310 315 304 302 308 295 296 295 295 293 292 291 288 289 291 284 283 286 285 285 283 286 282 283 283 281 282 280 281 279 277 277 278 280 279 281 282 282 280 282 280 284 287 287 288 288 289 288 284 284 284 286 285 285
319 319 319 319 318 318 318 318 318 319 319 320 321 321 321 321 322 322 322 322 323 323 324 323 324 322 318 298 294 293 287 293 295 295 300 301 299 294 297 299 294 296 290 289 291 292 292 289 287 286 288 284 286 286 282 284 284 282 282 280 279 282 279 280 281 278 279 281 280 284 281 279 279 280 282 288 289 287 286 285 286 285 285 286 286 287 286 286
319 319 318 317 317 318 319 319 318 318 319 320 320 320 321 321 321 321 322 322 323 323 323 323 322 318 305 298 292 288 292 295 296 297 299 299 296 295 296 295 292 292 295 290 290 290 292 289 291 288 287 284 283 284 281 283 284 280 280 280 282 280 280 280 282 279 279 282 281 284 280 280 280 282 283 283 283 280 283 282 280 281 284 285 286 286 285 285
319 318 318 318 318 318 319 319 320 318 319 320 320 320 320 320 320 321 321 322 323 323 323 321 320 314 300 296 291 286 294 298 297 299 299 298 295 296 295 296 294 291 291 290 292 291 291 288 286 288 290 286 284 283 281 284 281 279 279 279 279 279 281 280 282 280 280 284 279 283 280 280 281 280 284 289 282 282 282 283 281 281 283 284 284 284 285 285
319 318 318 318 318 317 318 319 319 320 319 319 320 319 319 320 320 321 322 322 323 323 323 320 315 300 295 292 288 292 296 297 298 298 301 299 296 297 295 296 293 292 293 292 292 292 290 288 286 287 289 287 284 283 284 282 283 281 280 284 280 278 283 281 282 280 280 283 280 280 281 280 280 281 287 286 282 283 281 283 284 282 282 283 283 283 283 285
318 318 317 317 317 317 317 318 319 320 320 319 319 319 319 319 321 321 322 322 322 322 323 321 312 304 302 293 292 297 294 294 295 299 301 299 294 294 295 295 292 292 294 294 293 295 288 286 287 289 285 282 281 284 283 282 279 282 281 281 283 278 282 282 280 281 282 283 278 280 280 276 279 284 286 284 283 281 283 284 285 286 286 286 285 284 284 284
317 317 317 317 316 316 316 317 318 319 320 318 318 318 319 320 320 321 322 322 324 322 323 318 299 295 292 286 294 296 296 293 295 298 298 299 296 296 293 298 297 297 296 294 293 291 289 286 289 287 283 284 283 287 285 280 281 284 280 279 278 280 281 282 281 279 283 283 280 283 281 284 284 283 284 282 281 282 285 287 286 286 286 286 285 284 284 285
317 317 316 316 316 316 316 317 317 319 319 318 318 318 319 320 320 321 322 322 321 322 321 314 299 298 289 292 295 297 312 295 295 295 295 298 294 297 297 299 296 297 296 296 294 290 287 287 287 284 286 284 287 286 280 279 279 279 283 281 275 280 278 278 282 278 283 283 280 284 277 279 283 286 283 282 281 283 285 286 285 285 285 285 284 284 284 285
316 316 316 316 315 315 317 316 317 318 318 318 318 318 319 319 321 318 321 321 319 323 304 308 298 292 287 290 298 308 294 293 295 297 295 297 295 298 297 296 296 299 298 299 298 296 294 292 286 284 285 286 282 278 279 282 280 275 281 277 280 279 276 279 281 278 278 279 281 282 282 282 285 280 277 278 285 283 282 284 285 284 284 284 285 285 285 285
315 316 316 315 315 315 316 317 317 317 317 318 318 318 319 321 320 320 319 314 306 304 301 299 291 295 293 295 298 292 291 293 295 296 296 296 298 297 297 296 296 297 296 299 296 299 296 291 286 287 283 283 279 280 286 277 274 275 274 281 277 280 278 278 278 281 279 280 284 278 282 280 285 287 288 287 283 282 282 284 285 285 284 284 284 284 284 284
315 315 314 315 315 315 316 317 317 317 317 318 318 318 316 321 316 318 309 304 299 301 301 298 292 291 290 296 292 290 293 291 294 294 293 296 297 297 298 296 296 295 293 296 295 295 292 292 287 286 280 280 280 277 279 277 279 280 278 276 276 274 275 277 279 282 281 278 282 278 278 281 284 285 286 285 282 281 284 285 285 284 284 285 285 286 285 285
314 314 314 314 314 315 316 316 317 318 318 319 317 319 315 315 302 299 296 296 297 290 290 290 293 285 282 291 290 290 291 293 295 295 295 295 296 297 294 295 293 297 293 290 292 291 287 287 285 282 287 279 280 278 277 282 276 280 277 278 276 278 275 278 277 276 280 280 280 278 280 281 283 284 286 287 283 282 283 283 283 283 283 285 286 287 288 288
314 313 313 314 314 315 315 316 317 318 318 311 305 302 298 297 292 297 295 295 291 292 290 293 292 293 293 290 291 294 294 295 298 295 293 294 298 296 293 292 291 291 289 290 287 285 284 281 282 281 278 280 279 278 278 277 277 276 276 275 277 277 277 276 276 279 277 279 275 275 274 276 281 284 286 286 284 282 282 284 284 285 286 287 287 288 288 289
313 313 313 313 314 314 315 315 316 317 317 302 299 299 295 292 290 287 291 291 288 291 294 291 291 291 292 290 291 295 291 293 295 294 293 298 297 294 293 291 286 292 282 283 287 286 283 281 281 278 278 278 280 277 277 278 277 279 276 278 277 277 278 277 280 277 278 282 276 274 279 283 284 285 284 283 282 284 284 285 284 286 286 287 287 288 288 289
313 313 313 313 314 315 315 316 316 318 312 299 301 297 294 296 297 295 294 289 291 291 290 292 292 292 291 293 294 293 291 290 294 291 294 298 293 292 290 288 287 288 282 281 283 278 278 283 279 279 278 278 277 278 278 281 278 277 282 277 278 275 276 276 277 275 277 280 279 275 280 283 285 285 284 281 281 282 281 283 285 284 286 288 288 287 288 288
312 312 313 313 314 314 315 315 317 315 300 299 296 295 296 299 297 295 296 290 286 290 291 288 291 287 292 293 293 295 289 287 288 291 293 297 292 290 292 288 282 283 282 283 287 279 285 281 280 279 279 280 278 276 278 278 277 278 281 280 278 275 278 276 274 277 278 280 277 276 278 282 281 279 279 279 279 281 281 281 282 283 285 287 288 287 287 287
312 312 312 313 314 314 315 315 314 303 299 295 297 298 299 296 296 299 296 289 286 289 291 290 290 290 290 292 294 291 289 289 288 290 294 294 291 288 286 282 282 283 286 282 281 282 280 281 278 278 278 281 280 277 278 275 277 275 278 277 277 280 280 278 276 278 277 278 277 278 277 275 274 284 286 285 279 280 282 282 281 282 284 284 284 285 285 286
312 312 312 313 313 314 314 314 300 297 299 299 298 299 296 296 297 298 292 284 285 286 292 291 291 292 292 296 292 294 288 286 288 290 290 294 290 287 287 285 285 283 282 280 280 281 280 279 280 281 279 279 280 281 277 276 278 273 275 278 280 277 279 277 276 278 274 276 278 278 275 273 274 275 277 279 278 280 280 283 285 283 284 283 285 286 287 286
312 312 312 313 313 313 315 302 295 298 300 298 300 299 296 296 296 296 285 279 277 281 288 287 296 291 296 293 292 288 289 287 291 291 296 294 296 289 287 285 284 284 279 280 283 280 280 279 281 281 279 278 278 279 279 277 276 278 278 277 275 277 277 277 277 277 275 276 278 276 278 271 274 277 279 277 275 277 280 278 281 282 284 283 284 285 286 286
312 312 313 313 313 313 297 293 294 298 296 298 298 298 295 295 294 296 290 274 276 284 287 289 290 290 293 290 290 289 284 283 292 292 291 294 293 296 288 282 284 282 280 282 281 280 281 281 280 279 280 279 279 280 279 275 276 278 278 276 277 278 279 278 277 278 275 275 277 276 272 273 275 277 275 274 277 278 279 282 283 282 281 283 284 285 284 287
312 313 313 313 312 312 295 297 297 295 297 298 299 298 296 294 294 294 283 269 273 289 287 287 291 295 296 290 286 287 286 287 288 290 292 291 294 290 288 286 283 282 282 281 277 278 279 280 279 280 277 279 278 275 281 277 279 278 278 279 279 279 277 276 280 278 276 276 275 274 277 276 272 277 275 277 282 283 281 282 283 281 281 282 284 285 285 286
312 313 313 313 312 308 298 298 296 297 298 299 297 298 298 293 293 287 276 273 286 283 296 289 297 292 288 291 286 284 289 285 288 290 290 292 290 290 285 284 280 280 279 282 278 279 280 280 279 279 279 277 277 280 277 279 279 280 278 279 278 278 277 277 275 278 274 274 271 276 276 273 273 273 275 275 280 278 279 283 285 284 283 283 284 286 286 285
312 313 313 313 304 299 298 295 297 297 297 296 295 296 295 295 290 281 274 271 288 283 290 289 289 285 285 286 285 285 287 283 285 286 287 288 290 289 286 284 281 281 284 279 280 280 281 285 285 281 280 278 278 278 278 279 279 278 280 280 276 274 277 274 273 273 272 269 270 275 274 275 273 276 277 281 281 279 280 280 281 281 282 283 283 284 285 286
312 312 312 312 297 296 296 292 299 297 297 297 296 294 295 289 276 271 268 277 288 287 287 287 286 286 285 287 285 284 285 281 284 284 287 285 289 284 286 285 283 278 274 275 281 279 280 281 282 279 283 280 280 280 280 278 279 279 279 280 276 276 272 274 265 268 269 263 267 273 275 274 271 272 273 278 277 276 283 284 286 286 286 286 284 284 284 284
312 312 313 307 301 299 296 293 297 296 298 297 294 292 290 284 278 275 275 289 284 284 284 283 283 281 282 284 283 281 283 282 281 282 283 279 281 282 280 279 279 276 270 272 277 278 279 280 280 279 282 281 279 277 279 279 278 279 276 273 274 270 265 269 262 272 265 267 277 274 273 272 274 280 279 275 277 277 278 284 287 286 286 284 284 284 284 284
312 312 312 307 306 296 296 294 296 298 298 294 291 288 284 277 272 275 279 280 284 283 285 284 283 283 283 284 284 282 283 284 283 282 282 281 282 279 277 281 280 282 275 274 276 278 275 276 279 281 281 282 278 278 277 278 276 278 279 273 270 267 258 263 253 257 263 270 273 275 272 274 276 279 280 283 285 280 278 280 281 282 284 285 284 283 284 285
312 311 305 302 301 299 300 299 298 297 295 294 292 288 279 273 275 284 282 282 282 282 283 283 283 283 282 284 283 282 285 283 282 283 282 279 278 279 280 280 280 282 273 275 277 273 272 277 277 280 280 280 280 278 275 280 276 278 274 277 273 263 267 266 258 270 272 271 272 270 271 270 273 280 281 278 279 277 277 277 278 279 281 281 281 282 284 284
311 308 301 298 297 298 297 297 296 297 291 289 285 278 276 275 273 277 280 281 282 281 285 283 282 282 282 281 280 280 283 282 282 282 282 280 277 276 278 281 282 278 276 278 275 272 275 275 276 278 279 278 280 280 277 275 276 277 276 277 274 272 272 272 259 262 261 265 268 269 272 274 279 279 283 278 278 280 279 280 279 280 281 281 284 286 286 285
308 303 299 297 298 300 296 296 294 294 290 288 283 277 278 279 279 281 284 287 284 285 284 284 282 283 277 276 277 283 285 283 283 281 278 279 278 279 277 278 282 282 281 278 274 274 272 273 277 277 277 279 279 279 281 279 275 277 277 273 277 274 274 265 264 265 265 263 269 264 275 278 279 279 278 275 280 283 281 281 280 281 283 283 285 287 286 285
301 298 294 295 297 299 299 297 295 293 292 286 281 278 275 275 282 282 290 288 287 284 283 281 278 284 276 275 277 276 283 283 281 280 277 276 279 280 279 280 280 282 280 282 278 275 277 274 278 277 278 279 277 278 279 278 279 278 274 274 278 274 271 273 272 262 258 264 269 268 271 274 275 278 278 277 278 280 280 281 281 282 282 284 287 287 286 285
297 293 295 295 297 298 298 296 295 292 288 286 279 287 276 281 285 287 286 285 286 285 283 282 281 284 279 278 279 278 282 282 279 280 273 277 278 281 279 281 283 282 282 282 280 279 280 275 274 276 277 279 278 280 278 280 279 278 277 279 279 272 274 269 267 265 265 263 262 268 267 270 274 278 277 278 277 280 280 281 281 284 284 285 286 287 286 284
292 289 290 294 297 295 296 295 294 291 287 281 276 281 280 283 284 286 287 287 287 285 285 283 283 281 279 277 278 278 279 279 277 276 276 277 278 283 284 283 283 280 279 280 280 278 278 275 274 276 278 278 277 277 273 276 279 276 278 279 277 274 266 269 270 266 267 265 263 267 265 277 277 275 275 279 276 279 280 281 284 286 286 287 286 287 286 284
293 289 284 294 296 297 294 296 290 288 283 280 275 278 280 283 286 285 284 287 288 285 283 284 283 283 281 280 279 281 280 278 277 277 278 279 280 284 285 285 283 282 278 281 280 279 278 276 268 273 274 275 277 275 276 278 276 276 277 271 273 273 276 274 270 271 272 258 259 261 268 274 278 277 278 281 281 280 281 285 286 286 286 286 285 286 286 284
295 290 286 292 297 295 295 291 287 281 278 274 277 277 278 284 286 287 286 286 287 287 285 284 282 283 282 282 282 279 280 277 277 279 278 277 280 281 282 283 283 282 281 282 282 278 274 274 273 269 274 273 275 275 275 275 277 278 279 276 279 275 272 271 273 269 264 269 268 259 272 275 283 278 281 282 281 279 279 282 284 284 286 286 285 285 284 285
294 284 286 294 296 295 290 285 278 276 277 279 281 279 285 292 285 285 286 284 287 286 284 285 282 283 278 282 282 280 279 277 277 279 277 280 280 282 281 274 280 280 282 278 279 278 280 271 268 270 272 275 276 276 275 275 273 274 277 275 276 275 274 268 267 268 268 268 268 264 264 276 282 279 278 280 280 279 278 278 282 284 284 284 284 284 284 284
290 289 296 295 295 295 288 278 279 281 276 277 282 283 284 287 285 286 287 286 287 286 283 284 285 284 283 284 281 279 280 281 279 280 278 278 278 279 278 275 278 281 279 280 280 279 286 274 273 273 268 271 274 271 271 273 275 273 272 269 274 278 277 277 269 270 269 266 268 267 266 277 282 277 278 278 277 277 277 276 280 283 282 282 282 283 283 282
291 290 293 294 294 293 288 281 278 276 277 279 283 284 285 287 285 285 285 286 287 286 285 283 285 285 287 282 281 282 282 281 280 281 281 279 282 280 277 280 280 281 282 282 281 284 277 275 275 267 268 268 270 272 273 273 272 271 273 273 275 273 270 267 266 267 272 270 273 271 270 274 281 277 277 277 277 277 279 279 279 281 283 283 283 283 283 282
294 293 290 291 293 292 287 282 276 273 277 279 281 280 283 284 285 288 287 285 287 284 285 284 285 285 285 283 283 281 280 283 280 280 281 279 281 279 280 280 279 281 281 281 285 281 278 276 274 271 270 266 267 265 266 270 276 275 274 274 275 277 272 274 274 269 270 269 273 267 268 280 283 279 281 280 277 280 280 279 278 280 283 284 283 284 284 283
289 284 285 282 282 290 286 282 283 282 277 277 277 278 282 282 284 284 286 287 287 285 284 286 283 283 281 282 282 281 282 280 282 278 279 279 278 281 281 275 276 281 283 285 284 280 276 273 276 277 278 277 278 270 274 276 274 276 274 274 276 275 277 275 272 268 275 269 273 276 278 281 283 284 282 284 281 281 284 284 283 283 281 282 281 283 284 284
294 286 282 277 280 283 281 281 281 282 283 281 279 278 278 282 283 285 286 287 287 287 286 286 286 285 283 282 280 281 281 282 280 279 278 278 278 281 278 280 279 279 284 285 286 277 272 275 277 276 277 281 277 275 275 278 275 274 275 275 275 276 276 277 276 276 276 273 271 278 279 277 282 286 285 283 283 282 281 281 282 282 282 283 284 282 285 283
286 288 287 286 281 276 279 283 283 282 282 283 280 281 279 279 281 281 285 286 286 285 286 284 283 286 285 285 282 281 280 280 279 279 280 278 280 281 281 281 280 284 285 281 282 280 275 274 274 275 278 280 277 276 275 276 276 275 275 275 275 276 275 277 279 278 278 276 278 280 278 278 282 285 287 285 284 284 285 285 285 284 282 282 281 282 283 283
292 289 288 289 286 278 280 282 282 283 284 283 281 282 282 282 281 283 283 285 285 285 286 284 283 285 285 286 286 284 282 279 279 279 279 279 280 280 279 279 280 282 282 281 281 278 281 274 272 275 274 275 275 274 274 276 275 275 274 275 277 277 277 279 280 279 278 281 282 282 277 278 283 286 288 289 283 283 284 282 281 281 284 285 283 284 285 286
287 289 285 288 287 287 286 285 283 283 281 285 281 283 283 283 283 283 283 284 282 283 285 284 286 284 286 285 286 286 286 286 284 282 282 283 279 280 280 282 282 281 281 282 282 281 282 277 280 272 273 275 271 271 272 274 273 275 277 275 276 277 278 278 279 279 277 278 280 280 279 281 287 289 288 289 284 281 281 283 285 285 284 285 285 285 285 285
293 294 294 288 285 287 287 286 286 285 280 279 282 284 283 283 283 284 284 285 286 285 284 285 287 286 286 286 286 286 289 286 285 287 287 284 285 284 284 283 284 280 281 280 279 280 281 275 273 271 273 272 270 268 271 269 271 271 273 274 276 274 272 276 277 279 278 279 281 278 277 281 286 288 283 285 283 282 284 285 285 285 284 283 283 284 284 284
294 294 295 292 285 290 287 286 284 285 283 286 283 282 283 284 284 285 285 287 287 289 287 287 287 288 286 286 286 287 289 288 289 288 287 286 284 283 283 283 285 283 281 282 279 279 280 277 276 272 274 268 269 268 268 269 270 274 273 278 280 278 279 278 280 279 282 283 279 278 280 287 288 286 282 285 281 281 280 282 283 283 283 283 283 283 284 284
Wind_Speed
14 13 11 11 12 12 11 11 10 10 10 10 10 10 10 10 9 9 9 8 8 7 6 5 4 4 3 3 3 3 8 6 5 4 6 4 5 6 7 9 9 3 3 1 4 3 1 3 2 9 3 1 1 1 0 3 1 2 1 3 2 1 1 5 4 7 1 1 3 3 5 4 2 0 1 1 1 2 2 4 5 5 9 7 5 1 0 1
14 14 13 12 11 11 11 11 10 8 7 8 9 9 9 9 10 9 9 9 7 7 6 4 2 0 1 3 4 3 5 2 3 5 1 2 4 5 8 8 5 4 2 2 3 2 1 1 3 5 3 1 1 0 0 0 1 2 2 2 0 5 1 6 3 5 2 1 2 3 2 4 4 4 1 1 3 1 5 8 4 9 12 11 11 8 1 3
14 13 13 12 11 11 11 11 11 10 8 8 9 9 9 10 9 9 10 9 8 7 6 5 3 1 0 3 3 1 1 2 1 1 1 1 3 7 8 6 3 6 1 0 1 3 1 1 0 1 3 1 6 2 3 0 1 1 1 1 1 6 1 3 2 2 1 3 2 4 2 3 1 2 1 2 3 1 8 8 2 9 17 15 15 5 9 4
14 13 12 12 11 10 10 10 11 11 10 8 9 9 8 8 8 7 7 8 7 6 7 4 3 1 1 2 2 1 2 2 0 2 2 3 7 8 6 4 5 5 3 3 3 2 4 5 4 1 0 2 3 2 1 3 0 0 2 1 2 3 3 1 3 1 2 2 1 4 1 1 3 2 1 1 1 9 12 12 12 12 16 16 3 5 6 8
12 13 12 12 11 11 11 11 12 11 11 10 10 9 9 8 8 7 7 7 7 6 5 5 2 1 1 1 3 1 2 2 1 2 3 7 9 8 5 3 7 4 1 5 5 4 4 2 2 3 2 2 3 1 1 2 2 3 1 0 0 1 1 0 1 1 1 2 5 3 5 5 1 0 2 3 5 12 7 6 11 14 11 8 7 5 4 7
12 11 11 12 12 11 11 11 12 11 11 11 11 11 9 8 7 7 6 5 7 5 5 4 3 3 2 5 3 1 1 1 1 2 5 9 9 8 4 3 8 5 6 3 1 2 1 2 1 0 2 2 2 2 1 1 2 1 1 1 1 1 0 1 0 1 4 3 4 4 3 2 1 2 2 6 13 10 3 1 4 8 8 5 3 2 4 7
14 13 12 11 12 11 11 11 11 11 10 10 11 12 11 10 8 7 6 6 6 5 4 2 1 2 5 6 3 6 1 1 1 4 9 9 8 6 5 8 7 4 1 0 2 1 1 1 2 1 3 1 1 1 1 2 3 4 2 0 0 1 0 2 0 1 3 9 3 4 1 1 3 4 1 4 17 21 7 2 1 2 1 1 2 4 8 9
16 14 14 12 12 14 13 12 12 12 12 11 11 12 12 11 10 8 7 6 5 5 4 3 2 3 5 0 0 2 2 1 4 3 10 8 7 6 7 5 2 2 1 1 1 1 2 1 2 4 5 1 1 1 4 1 3 2 1 2 0 0 0 1 0 1 2 1 0 1 1 3 6 2 2 12 18 11 12 9 12 11 7 8 9 12 9 9
17 16 15 14 14 15 15 13 13 13 13 13 12 12 12 12 11 10 8 6 5 4 4 4 4 4 4 3 2 1 2 1 4 5 6 8 7 5 4 0 3 5 3 2 0 2 3 2 1 4 1 1 0 1 3 1 1 2 1 2 0 0 2 2 1 3 1 0 1 0 4 5 7 4 6 20 16 7 6 6 8 6 8 11 12 13 10 11
16 17 16 15 15 14 12 13 14 13 13 14 13 13 13 12 12 11 9 6 5 4 4 3 5 7 3 2 2 2 1 1 1 3 6 7 3 4 8 3 2 4 2 0 2 3 1 3 1 5 9 4 1 2 2 2 0 2 3 2 4 1 1 4 1 4 2 0 0 1 5 2 4 2 9 1 2 4 2 4 4 3 9 11 8 8 7 9
16 16 16 15 15 16 15 14 12 14 14 13 14 14 13 13 12 11 9 7 5 2 3 2 6 1 0 1 2 0 1 2 0 3 6 7 6 8 4 5 1 2 4 1 1 1 0 2 4 3 1 2 3 3 3 1 3 3 4 3 5 4 1 3 1 4 4 1 0 1 4 1 1 1 10 8 1 2 5 7 6 5 8 9 8 8 7 7
16 16 17 16 15 16 17 16 15 12 14 13 14 15 14 13 13 11 8 8 4 1 2 2 5 6 4 5 3 1 0 1 1 3 6 9 4 1 4 1 2 2 1 1 1 0 2 4 3 2 1 1 1 0 2 2 2 1 1 0 4 5 2 8 2 4 3 1 1 1 3 1 1 6 15 6 4 6 7 10 8 6 7 8 8 8 7 10
17 16 17 16 16 16 17 17 17 15 12 14 14 15 14 14 13 10 8 7 2 1 3 4 2 1 0 1 1 2 1 0 2 7 8 5 2 2 3 3 3 3 1 2 1 1 3 4 4 7 0 4 3 0 2 5 1 0 4 2 3 7 3 5 2 3 2 1 2 1 5 5 7 15 13 4 7 6 6 8 8 8 8 8 7 7 8 7
17 17 17 17 16 17 17 17 17 17 14 16 15 15 14 13 12 9 6 6 4 2 4 3 3 4 1 1 4 2 0 2 3 9 9 8 3 1 0 3 1 3 2 5 1 0 3 1 7 7 3 4 2 1 3 3 3 1 2 5 2 3 2 2 2 5 0 1 4 1 2 11 7 8 9 4 0 6 11 12 10 9 9 9 8 7 8 9
19 18 18 18 18 17 16 17 17 17 17 17 16 15 14 13 11 8 5 4 3 1 6 4 3 1 2 0 3 6 2 1 7 4 4 9 5 2 4 9 4 6 1 2 3 1 3 3 4 5 2 1 1 1 2 2 4 2 2 1 3 1 3 4 3 4 0 1 4 1 1 8 10 14 4 1 3 8 10 12 11 9 9 9 8 8 7 9
20 19 19 19 17 18 16 17 17 17 17 19 16 17 13 10 9 6 2 3 4 6 3 1 3 4 3 0 0 1 4 3 3 2 1 4 3 2 3 5 4 3 1 2 3 3 4 8 9 1 2 1 8 5 4 2 3 5 3 4 2 1 5 5 0 2 4 2 3 2 6 7 10 4 3 1 10 7 7 10 9 9 9 8 7 7 7 9
19 19 20 20 19 18 17 17 17 18 19 19 18 14 6 6 8 1 6 4 4 1 1 1 1 1 0 2 1 1 2 2 4 2 6 2 1 1 3 1 2 2 4 1 2 1 5 4 2 1 5 6 1 2 1 4 4 2 2 1 1 1 2 2 3 1 5 2 3 5 1 8 11 15 16 11 4 7 6 9 9 7 7 7 7 7 7 7
19 19 20 20 19 20 20 18 17 17 18 19 15 10 6 6 8 3 5 6 1 5 5 3 2 3 1 3 0 1 0 6 7 6 3 1 3 4 3 3 1 1 4 1 3 3 4 1 2 1 3 5 6 4 4 1 1 1 1 3 2 1 4 5 2 1 7 3 1 2 3 14 15 13 13 8 5 4 7 8 8 9 8 8 6 6 6 6
18 18 19 19 20 19 20 20 17 19 17 19 9 2 2 3 2 5 6 4 1 3 1 2 3 1 1 1 5 6 2 4 3 3 4 5 3 1 2 2 4 0 1 2 1 2 5 2 2 3 1 4 2 1 4 1 3 1 3 2 1 2 3 3 3 3 5 7 6 1 5 11 16 16 15 10 3 5 9 7 7 6 6 5 5 6 6 6
18 18 18 19 19 19 20 20 18 18 17 11 9 3 2 3 5 1 7 8 5 1 1 1 0 1 2 3 4 5 1 3 0 1 2 1 2 2 1 2 3 7 3 1 6 3 0 3 1 2 2 3 1 2 3 2 4 5 4 3 1 2 6 4 2 3 2 3 2 2 4 6 14 14 14 11 9 5 4 6 6 5 6 7 7 7 8 7
20 19 18 18 18 20 19 20 21 19 14 2 2 4 2 0 1 3 5 2 0 2 1 2 2 1 2 1 3 6 1 1 1 2 2 1 1 1 1 2 4 0 1 1 2 2 2 3 0 2 1 3 3 3 5 6 4 1 4 1 2 2 3 1 0 4 6 5 4 3 8 12 12 11 11 7 5 4 4 7 5 7 6 6 6 8 8 8
20 21 20 18 18 18 19 18 21 19 6 3 7 5 1 1 0 0 0 3 1 1 1 0 1 2 3 3 1 2 2 1 1 2 3 2 2 1 3 3 1 3 2 1 1 5 4 1 1 1 1 4 4 3 1 1 2 3 1 2 1 1 6 6 1 3 3 3 8 4 9 15 16 12 11 5 4 5 5 3 5 5 8 7 7 6 8 9
19 20 20 19 18 18 17 17 14 11 6 7 4 2 1 2 3 1 1 2 4 0 0 0 0 1 2 1 0 1 1 0 1 4 5 6 1 3 0 1 2 1 1 4 3 1 1 0 2 1 4 4 3 3 3 4 4 1 0 2 3 3 4 5 1 4 4 1 4 4 8 14 11 7 7 7 3 4 5 5 8 5 5 6 6 6 7 7
18 19 20 20 20 20 17 18 11 5 5 3 5 1 0 2 3 3 1 1 3 3 1 1 0 1 2 0 1 1 1 0 1 3 4 3 1 2 3 2 4 1 1 1 2 4 4 0 1 4 2 1 2 2 2 1 2 1 1 1 1 1 0 2 5 7 3 2 1 6 5 8 3 1 1 1 3 4 4 6 1 2 5 5 6 5 3 5
17 18 19 21 21 21 19 11 7 3 1 0 1 1 2 2 2 1 2 2 1 2 1 2 3 1 2 2 2 1 0 1 1 2 2 2 0 1 1 1 1 1 1 1 5 4 0 1 2 1 3 2 2 0 0 2 4 4 3 2 1 1 1 3 5 8 8 1 3 5 6 3 3 5 8 8 7 4 3 3 2 4 5 4 5 6 6 4
18 18 19 20 22 24 15 2 3 3 3 2 1 2 3 1 1 1 6 4 3 3 2 2 1 1 1 0 4 1 1 1 1 2 1 0 2 1 1 1 0 3 2 2 1 1 1 0 0 2 3 3 2 1 1 3 2 1 0 1 3 4 2 1 5 4 5 2 2 2 1 8 7 4 4 2 5 6 7 1 3 5 5 5 4 4 5 5
20 21 18 20 20 22 6 1 4 2 2 2 3 5 3 1 2 2 1 4 3 3 2 1 1 0 2 1 0 1 0 1 2 1 1 2 1 1 1 1 1 3 2 2 1 2 2 1 4 3 2 2 0 1 3 4 2 2 0 5 4 2 1 0 2 2 3 2 3 3 3 2 8 10 3 4 3 4 4 4 4 4 4 5 5 5 4 5
20 20 20 18 19 10 1 0 5 4 0 4 6 5 3 2 1 1 5 3 2 1 1 1 0 1 1 0 4 1 1 2 1 1 1 2 0 2 3 3 3 4 0 1 5 2 1 2 1 2 1 1 3 1 1 0 1 1 3 1 1 1 1 3 1 0 0 1 6 1 1 0 5 9 4 1 2 2 5 5 5 4 5 5 6 6 5 4
19 20 21 19 17 4 3 1 2 0 1 4 6 5 3 1 1 5 3 1 1 2 1 2 1 0 3 1 4 1 0 1 0 1 4 1 1 1 1 0 4 6 2 1 5 1 2 0 2 3 3 3 2 0 1 1 1 1 4 4 5 5 4 2 2 2 1 2 6 2 2 2 8 7 5 2 1 6 7 8 8 7 5 5 6 7 6 4
19 20 20 19 9 3 5 1 0 0 1 3 4 4 1 1 2 1 3 4 1 2 1 1 1 2 1 1 1 5 1 1 1 5 4 2 5 5 2 4 3 2 1 5 7 3 0 2 2 2 1 1 3 1 0 3 2 4 4 3 3 5 3 2 6 2 2 1 6 2 2 0 4 6 7 4 7 7 6 3 5 5 6 7 6 7 6 5
19 19 19 14 3 1 1 4 0 0 4 3 2 2 1 8 3 4 2 5 1 2 1 2 2 4 1 2 2 2 1 2 2 3 0 3 1 5 1 1 3 4 3 4 2 2 0 1 0 0 2 2 3 3 2 1 1 2 1 0 3 1 5 2 3 3 1 5 2 2 1 0 2 6 6 9 4 3 8 8 8 8 7 6 5 4 4 4
19 19 19 11 2 0 0 2 2 2 5 6 4 5 2 4 3 4 4 3 1 2 1 2 1 1 1 1 3 2 1 2 1 2 1 1 1 1 1 4 3 1 4 2 4 0 1 3 0 3 2 4 2 4 1 2 1 3 2 4 2 6 6 3 2 2 3 3 1 2 1 2 9 11 10 6 7 6 7 7 10 9 7 6 6 7 5 4
21 21 19 4 1 1 3 3 3 4 5 4 5 4 1 1 4 3 3 1 1 2 1 2 1 1 0 1 1 1 2 2 1 1 2 0 0 4 1 1 1 2 3 2 0 1 4 0 1 1 1 0 2 4 1 0 1 3 2 3 3 1 2 2 5 1 5 4 3 1 2 3 6 11 10 14 14 7 6 7 5 5 7 6 6 4 6 6
20 20 10 2 3 3 6 4 4 3 4 4 4 3 6 0 5 6 3 4 2 1 3 1 3 1 3 2 1 0 1 1 1 0 1 1 2 2 2 2 3 1 3 1 1 2 2 5 3 3 2 1 0 0 2 1 6 6 1 2 4 5 1 2 2 5 5 3 3 4 2 6 1 3 1 7 6 4 5 6 5 5 7 6 6 7 7 7
22 14 5 4 1 1 4 4 3 2 3 2 7 4 4 5 2 2 3 3 2 1 1 0 1 1 3 1 2 2 3 1 1 1 0 2 4 2 3 4 3 3 2 3 4 2 3 5 1 1 1 1 2 1 1 3 4 1 2 4 4 4 5 4 4 2 1 3 5 1 6 4 6 4 8 3 6 7 5 7 4 8 7 5 6 6 6 5
14 9 4 3 2 2 5 3 1 3 4 6 3 1 7 6 3 1 2 1 1 1 0 1 2 0 2 3 2 1 3 0 1 0 1 1 2 2 2 2 7 10 8 7 4 3 2 5 2 6 2 1 0 0 0 0 2 2 3 3 2 1 7 7 1 1 1 4 7 1 9 8 8 7 4 7 2 7 4 4 3 6 7 2 5 7 6 6
9 9 6 5 4 3 5 3 2 4 7 6 4 6 6 4 6 3 3 0 2 2 1 0 4 4 1 3 1 1 1 1 2 2 3 1 4 6 3 4 4 3 4 5 4 4 3 4 1 1 0 1 1 1 1 1 1 3 1 4 1 1 3 3 2 1 4 2 7 2 4 9 7 9 4 7 5 8 4 6 5 6 3 5 7 7 7 6
8 5 4 3 4 4 3 4 1 5 5 4 4 7 1 2 2 4 2 3 0 2 0 2 4 4 3 1 2 2 1 2 3 1 2 2 2 3 1 2 1 2 0 1 4 3 3 5 1 1 0 3 1 0 1 0 0 0 1 1 1 1 1 2 3 2 1 3 5 6 2 8 7 10 5 7 3 6 6 3 3 7 7 8 7 9 8 7
3 2 4 1 2 3 4 2 2 5 4 2 4 2 3 5 1 1 5 5 1 3 0 3 3 1 1 1 1 1 2 4 1 3 1 1 1 4 4 3 0 0 1 5 2 1 1 3 4 1 1 0 1 1 5 1 1 0 0 1 0 1 1 3 5 2 4 3 3 7 5 8 7 7 7 8 7 6 6 3 8 11 9 9 7 7 7 6
5 4 3 2 4 4 3 1 2 3 4 6 4 4 1 1 4 3 1 3 2 3 4 1 1 3 1 4 3 1 2 1 3 3 1 1 3 2 3 3 3 0 2 1 2 1 2 2 5 1 3 1 2 4 8 9 8 0 1 1 1 0 2 3 1 2 3 4 3 1 6 9 9 7 6 10 8 8 7 9 9 9 9 9 8 8 7 6
1 1 4 2 7 4 3 2 2 3 3 1 1 3 1 2 1 1 1 3 1 2 2 2 2 3 3 0 4 3 1 2 2 3 4 2 5 2 0 1 3 3 0 2 0 1 2 1 6 1 0 3 6 1 1 2 1 6 10 9 10 8 3 1 8 2 1 2 4 4 9 9 12 6 10 10 8 6 6 6 7 7 10 10 8 8 8 7
2 2 3 3 8 4 3 0 1 0 1 6 7 5 2 2 0 1 1 1 0 2 2 1 1 2 2 3 2 3 2 2 3 0 3 6 3 2 1 3 2 2 6 4 6 3 3 3 4 3 8 6 3 0 1 0 0 0 2 3 5 2 6 4 2 4 1 1 4 3 2 13 6 6 5 8 8 6 6 5 9 8 9 8 9 9 6 7
1 6 5 7 4 2 2 2 1 1 1 4 2 2 0 1 3 1 2 0 1 2 2 1 5 2 5 4 1 1 4 3 6 5 3 3 4 4 1 1 1 2 2 1 2 2 4 2 1 5 3 4 2 0 0 1 0 1 1 0 3 6 6 7 4 4 7 2 2 1 2 12 7 2 6 6 6 5 5 6 9 9 6 7 8 7 7 5
2 5 6 2 3 3 1 6 3 4 5 4 0 2 1 2 3 1 2 2 4 1 3 2 2 6 4 1 2 3 5 2 4 6 4 2 3 3 2 0 2 4 2 4 4 5 3 3 5 1 3 4 2 2 1 0 1 3 3 5 3 2 5 2 4 0 0 8 9 9 9 9 7 2 4 4 5 6 8 6 8 9 8 7 7 7 6 5
4 3 4 5 5 2 5 4 3 2 3 3 1 5 3 1 6 6 5 4 2 3 1 3 3 1 2 1 1 1 2 6 3 3 2 2 5 1 3 3 3 2 1 4 2 2 1 3 6 4 6 5 4 3 4 6 9 4 2 1 4 7 7 5 3 1 4 3 7 4 7 14 9 2 4 5 4 6 6 5 4 8 8 7 5 6 8 6
1 3 3 3 3 0 1 1 1 2 3 1 2 4 2 5 1 3 6 5 5 2 2 0 1 0 1 1 2 2 5 2 6 2 1 2 2 0 1 2 2 1 3 4 3 2 2 0 3 7 10 11 11 2 2 3 4 4 3 6 8 4 3 3 5 5 11 5 8 10 12 8 15 14 6 9 4 6 7 5 5 6 7 9 7 8 8 8
2 1 1 3 3 1 2 4 2 1 5 3 2 1 5 7 3 1 6 3 0 3 1 5 3 3 3 1 4 4 5 3 1 1 5 3 2 1 1 1 0 5 3 2 2 1 1 1 7 7 7 10 5 4 3 3 1 3 4 5 5 8 8 9 10 11 6 10 7 10 9 4 18 22 14 8 8 7 6 6 8 8 9 8 8 6 8 8
1 3 1 1 2 4 2 5 4 5 3 1 5 1 2 3 3 5 2 2 0 1 3 1 3 6 6 8 3 3 2 4 3 4 0 3 1 1 1 0 1 2 5 0 0 2 3 4 3 4 9 10 5 4 3 2 3 4 6 6 9 11 9 13 18 6 10 7 12 8 6 8 15 17 17 10 8 8 10 10 10 9 7 7 6 7 9 10
2 3 2 2 3 2 3 1 0 5 8 5 2 2 8 8 7 6 2 0 0 2 7 9 5 10 9 5 5 8 3 2 7 1 3 2 6 2 2 1 3 2 2 0 0 2 2 5 3 2 5 5 2 1 1 6 3 1 5 9 9 13 19 21 16 8 12 12 12 10 1 8 16 19 20 14 3 7 8 5 5 6 10 9 7 9 11 13
2 2 3 2 2 6 6 5 2 1 4 5 3 11 6 7 10 4 1 3 4 3 1 7 12 3 5 6 8 12 14 12 6 4 3 5 3 3 4 6 2 2 1 4 2 2 4 5 5 1 0 7 3 1 1 3 5 6 6 5 8 12 11 10 8 9 7 10 14 16 8 16 22 22 14 14 5 5 5 7 11 10 8 9 11 12 13 13
4 4 4 6 7 5 2 3 4 5 4 3 8 9 0 5 7 4 6 4 9 7 6 11 8 4 3 7 11 18 12 4 6 11 8 9 10 6 5 5 7 4 3 1 1 0 3 4 2 1 2 6 3 1 1 2 3 7 6 5 9 9 8 7 9 12 8 14 13 5 7 14 21 17 1 7 4 5 10 11 10 9 7 9 10 12 12 13
2 3 3 4 8 4 6 2 2 1 10 9 3 3 4 6 6 4 8 8 11 11 7 7 4 6 6 9 17 17 12 6 10 5 1 6 1 1 4 1 8 10 8 7 1 5 6 4 3 2 3 7 3 0 2 1 5 8 9 13 22 14 7 4 7 2 15 14 8 7 14 18 18 7 7 10 6 6 7 9 8 8 9 9 11 12 12 11
Wind_Direction
5 9 11 12 8 4 1 2 8 12 4 359 356 355 354 350 345 346 350 345 341 337 324 336 353 334 339 350 344 19 53 84 32 34 55 233 222 251 294 304 305 327 75 44 12 48 348 20 4 342 24 86 287 92 261 55 78 59 98 133 48 189 81 197 167 190 185 112 197 183 205 148 224 281 247 89 286 215 282 256 276 291 257 235 242 181 146 123
6 5 6 8 8 2 357 356 355 356 2 356 0 358 355 351 345 341 341 342 335 333 330 321 330 185 205 329 10 33 79 62 67 60 113 254 244 283 302 304 303 137 122 44 67 62 76 339 345 29 42 94 345 219 45 275 80 96 145 85 177 193 247 149 200 186 113 345 157 195 201 184 217 148 267 177 286 327 277 259 224 258 268 260 255 241 236 126
7 5 3 2 5 2 356 353 349 346 351 354 0 358 355 356 349 339 337 336 328 327 327 312 271 226 107 338 18 241 72 34 72 8 285 269 270 304 305 296 229 161 139 144 219 116 95 191 242 65 9 169 9 212 33 321 38 203 116 30 272 206 329 212 165 186 213 141 93 155 219 155 253 156 20 201 241 347 237 247 236 231 253 247 245 220 229 196
7 5 1 1 1 1 358 354 349 346 348 350 351 354 352 348 349 339 324 331 329 316 323 307 305 120 272 2 124 102 81 84 62 265 265 280 322 312 311 293 177 137 98 64 147 112 102 82 58 72 174 65 306 39 57 310 66 267 69 162 166 178 108 237 173 246 218 175 139 145 62 178 271 219 147 236 292 259 249 229 211 224 233 252 259 220 216 220
2 3 358 357 0 0 358 357 354 349 343 337 347 349 349 346 345 346 338 326 330 317 321 315 301 272 277 88 134 89 80 49 279 238 259 335 331 328 315 277 149 128 134 141 83 51 73 112 107 43 73 245 357 5 60 334 88 83 73 208 148 63 50 241 200 9 115 116 103 127 121 216 53 61 208 161 210 251 211 241 207 236 251 257 258 245 206 211
356 358 357 354 356 359 358 354 352 346 341 337 341 345 345 345 340 341 341 320 327 317 308 350 304 255 144 127 98 84 69 68 271 311 348 339 340 343 334 147 129 119 109 63 108 69 101 19 86 28 356 60 336 80 316 95 334 53 346 337 218 214 127 306 322 228 136 124 129 148 220 84 157 262 229 188 217 241 162 152 200 218 244 280 317 191 214 222
353 355 355 352 351 355 357 354 349 345 340 334 336 341 340 340 336 334 336 333 336 320 316 314 353 251 160 103 54 86 122 256 5 280 358 342 348 352 80 106 108 108 124 104 23 115 64 124 95 188 97 63 281 87 69 318 18 105 165 77 351 194 103 245 259 230 184 123 203 190 73 190 128 248 119 227 237 244 252 235 227 224 342 6 293 225 229 226
353 354 354 350 349 351 352 353 350 346 342 339 335 337 336 335 334 330 331 329 331 327 301 297 255 157 169 48 81 327 34 278 273 336 339 343 1 350 103 94 98 139 101 112 154 106 145 107 194 154 63 135 219 133 333 350 34 89 96 215 197 129 290 303 128 85 166 163 33 111 153 231 184 213 6 253 252 254 260 270 274 272 273 274 265 260 246 247
354 354 353 351 349 348 346 349 350 345 341 338 335 333 334 332 330 327 325 325 327 318 306 289 245 203 124 85 103 7 305 243 207 309 341 352 341 17 148 297 13 168 141 87 353 163 153 257 106 192 249 150 119 84 346 123 336 74 146 117 2 54 320 346 207 40 22 168 163 92 269 272 241 293 256 255 271 279 267 261 259 278 279 267 256 255 251 247
355 351 350 351 347 339 332 339 346 345 339 335 332 331 330 330 326 324 321 321 324 332 322 307 138 129 91 87 40 40 265 184 322 328 351 347 356 72 51 94 40 101 126 349 58 94 138 221 138 171 127 80 101 29 266 53 135 126 123 114 104 299 344 8 89 344 320 188 274 250 302 311 351 125 286 326 295 6 21 301 301 271 257 259 257 261 253 242
356 351 345 345 346 342 337 333 329 339 338 332 329 328 327 326 324 320 320 316 329 339 359 334 151 205 95 82 97 205 181 46 118 3 2 356 45 48 1 349 18 76 100 64 68 225 160 138 148 132 22 220 121 3 75 143 148 57 132 138 30 351 109 0 29 6 351 352 101 190 260 4 298 91 240 249 221 8 346 298 287 280 261 264 266 263 260 250
354 349 345 343 343 341 336 332 331 324 332 330 327 324 324 321 320 316 319 317 324 31 57 36 129 104 76 70 112 182 68 179 73 29 23 7 41 139 158 348 35 122 89 59 292 257 210 157 110 54 216 154 40 138 76 149 78 191 198 97 325 9 41 11 25 339 18 297 98 167 284 307 167 226 235 259 347 352 312 286 282 259 257 264 266 265 257 247
352 350 347 345 341 341 336 332 329 326 320 328 324 321 320 318 311 312 316 327 357 78 92 135 90 69 96 21 235 256 359 188 65 18 8 29 78 75 114 72 66 84 106 110 329 306 176 136 105 83 218 91 144 102 160 80 5 298 31 93 8 3 9 347 328 349 11 243 82 256 339 270 243 245 266 299 326 332 328 309 309 309 301 291 286 279 275 263
349 348 348 343 341 340 337 333 328 324 321 325 322 319 318 313 304 305 310 296 306 95 111 122 85 63 79 240 272 247 299 128 45 28 2 321 64 304 45 50 78 36 28 103 69 106 102 103 91 113 125 90 136 271 52 347 15 116 288 65 72 19 270 351 42 310 60 102 25 45 295 295 273 258 254 303 339 26 326 307 306 307 305 302 297 290 282 276
347 347 345 343 342 338 333 332 329 324 322 324 321 317 318 309 302 305 312 329 46 40 144 76 50 88 50 291 259 304 154 96 42 341 328 11 9 339 335 348 5 7 35 102 136 91 104 75 71 37 70 280 71 81 12 20 5 26 51 286 330 79 279 298 38 26 104 322 42 109 305 240 278 286 301 245 332 6 319 306 305 303 300 301 301 300 295 284
346 346 345 344 339 336 331 331 330 325 325 322 321 316 315 306 307 306 8 71 17 112 106 113 359 98 102 22 213 141 38 50 331 336 308 46 41 8 300 286 293 29 50 47 75 94 54 81 72 177 170 12 51 86 47 27 345 358 70 272 273 9 257 341 347 333 268 250 334 64 265 324 303 251 275 288 344 337 312 300 300 301 299 301 306 307 306 312
346 345 342 340 339 334 333 329 329 330 326 321 322 313 313 312 320 51 89 70 30 11 50 255 103 71 25 244 317 24 305 281 299 2 345 47 73 281 342 53 6 344 11 138 25 117 355 63 278 29 39 93 140 90 35 9 331 322 28 189 216 244 330 299 317 242 343 44 272 1 252 243 257 296 305 313 349 326 311 295 296 296 294 298 304 307 308 308
348 347 342 337 336 336 333 330 324 330 328 322 321 304 312 334 340 157 1 22 344 76 87 78 127 54 272 8 140 281 69 289 349 304 258 279 66 24 53 50 266 59 39 16 356 69 337 78 26 184 13 14 30 49 94 217 206 274 341 354 324 312 217 254 332 330 9 10 339 324 271 272 278 290 294 295 346 349 288 280 291 299 304 309 314 312 312 312
349 345 342 340 335 334 333 331 326 329 332 318 310 337 89 44 10 71 60 349 39 328 47 309 7 185 194 284 304 311 296 234 284 5 323 11 342 93 53 90 69 248 329 60 262 60 350 89 43 38 181 359 15 110 168 205 146 245 184 192 175 314 294 249 255 286 44 323 329 305 262 301 303 305 305 316 12 321 284 298 291 281 293 302 312 319 327 323
347 345 344 341 336 332 332 332 327 326 339 343 359 9 15 18 4 325 346 36 77 172 167 258 152 304 305 349 320 282 257 344 102 268 321 319 349 347 20 58 6 60 73 219 306 53 334 93 169 202 204 183 209 146 124 130 131 102 82 91 190 249 283 283 284 284 305 300 275 288 294 284 284 281 285 297 330 319 326 309 307 319 327 326 328 326 320 319
347 344 342 341 338 334 331 331 334 326 340 25 29 54 61 175 11 314 322 286 205 123 78 229 177 194 263 291 301 2 42 320 104 311 338 142 181 111 276 25 21 116 17 254 201 317 65 72 290 199 191 174 167 137 102 78 39 125 111 70 306 213 291 220 330 332 323 49 287 7 323 290 275 285 283 306 348 306 308 321 319 319 313 315 316 321 321 303
348 346 340 338 337 333 331 331 331 325 358 63 61 76 111 85 127 199 73 317 315 208 54 283 119 315 317 213 262 143 144 355 350 327 306 14 339 125 307 95 120 205 342 349 354 20 32 199 181 208 121 94 67 74 43 143 109 42 218 208 335 302 250 292 295 337 305 15 268 2 347 296 292 295 295 277 258 259 256 230 261 286 306 320 324 322 315 333
349 344 342 337 334 331 331 327 326 340 11 28 37 58 33 305 2 315 70 160 289 260 67 77 69 317 327 282 267 137 48 77 234 337 341 11 352 55 177 91 48 99 15 33 204 35 12 288 172 123 139 101 55 49 82 71 69 92 348 10 288 270 22 321 303 8 331 37 279 341 324 286 301 297 264 261 219 266 266 259 255 215 261 286 303 304 304 313
345 346 342 338 333 329 324 329 325 37 28 110 98 99 284 38 26 21 45 238 285 307 227 231 166 171 234 356 211 77 88 282 74 307 355 48 93 195 66 112 108 73 163 335 145 161 205 167 143 100 125 165 119 33 101 67 288 341 138 142 234 338 331 173 276 327 296 14 43 296 293 304 325 294 298 299 333 312 306 326 312 286 235 264 287 301 235 274
343 343 343 341 337 327 322 339 44 339 217 41 54 268 17 33 63 108 76 346 13 305 183 339 117 246 199 80 28 355 238 50 225 257 295 39 220 30 56 168 123 194 153 192 104 85 20 307 137 91 58 76 117 4 197 127 320 324 229 169 186 150 225 328 333 358 10 358 28 39 355 321 306 284 249 283 344 338 326 3 316 301 318 345 342 320 316 304
343 342 345 345 338 329 318 42 340 358 357 51 341 3 14 24 140 142 91 76 310 270 344 229 164 207 136 234 6 196 80 324 271 262 333 48 205 145 138 30 50 209 175 140 116 149 159 287 109 164 122 78 78 162 232 136 155 47 245 167 128 119 103 49 345 28 357 353 336 11 91 271 328 298 263 329 329 299 321 341 287 303 300 316 299 305 310 313
344 345 343 347 341 336 24 295 282 329 26 347 0 333 334 342 215 131 38 350 341 243 163 263 57 231 110 294 315 66 51 269 336 17 27 332 22 293 122 278 42 29 140 180 53 256 104 28 69 54 87 94 84 291 215 137 104 262 3 129 96 83 56 301 89 110 230 272 304 52 104 215 307 288 268 290 315 307 324 303 293 289 296 293 296 296 305 313
342 341 343 344 342 358 144 268 5 47 304 293 317 318 320 222 217 36 80 45 286 318 73 274 187 336 89 328 45 149 221 306 45 239 185 291 102 338 64 198 161 170 267 109 214 278 104 137 144 111 88 116 216 212 129 177 159 228 193 125 106 131 150 123 89 127 209 348 294 344 336 339 256 265 312 330 251 274 273 264 265 277 285 284 293 294 295 299
339 338 340 344 336 89 71 61 126 148 229 291 300 312 300 274 96 100 116 122 245 77 245 55 290 34 345 315 31 29 354 348 138 298 317 307 54 216 52 202 119 123 51 135 202 233 315 135 214 154 147 230 227 3 160 266 71 235 137 85 88 73 70 100 101 87 330 51 283 208 10 196 284 276 334 340 292 261 242 235 237 243 259 283 297 299 298 308
335 335 334 342 344 29 350 33 49 225 286 292 270 300 2 59 34 38 38 244 14 287 68 267 52 263 23 75 323 5 127 329 117 310 24 131 331 42 28 141 116 82 54 23 73 161 279 295 185 103 187 169 129 26 112 58 81 124 129 80 29 39 46 29 64 89 55 341 257 240 328 144 295 271 224 161 221 198 214 282 273 283 282 273 261 259 278 292
334 330 329 347 15 302 346 4 295 8 297 288 290 17 338 38 116 108 174 226 1 231 22 21 275 13 70 145 229 327 78 341 330 13 217 2 353 41 89 39 70 48 52 12 67 347 30 10 72 297 62 103 123 75 29 92 83 114 96 114 36 6 11 55 342 32 96 278 260 259 274 332 203 292 283 240 280 240 173 187 215 226 240 252 270 271 263 272
330 325 327 333 234 119 103 264 254 308 325 309 49 48 75 244 8 162 212 315 262 287 79 285 3 103 48 342 93 339 121 348 341 46 80 6 66 104 207 156 187 94 338 251 246 329 292 181 228 3 254 128 157 85 10 30 5 77 70 33 66 279 21 293 15 294 200 199 243 320 248 352 233 231 252 285 261 260 232 203 197 204 225 248 260 260 270 288
329 326 323 305 129 351 238 270 12 349 337 1 69 52 60 109 235 244 254 328 249 41 271 78 298 349 295 69 250 304 275 138 316 94 143 358 109 290 235 186 194 194 237 275 298 24 279 263 354 236 71 164 149 150 244 36 7 97 149 135 85 3 36 261 279 234 296 296 271 294 281 264 263 282 243 245 255 223 231 228 234 233 222 222 241 284 303 295
325 324 323 255 227 247 286 304 308 345 23 24 69 57 46 218 242 252 230 234 251 7 46 27 338 359 13 188 256 192 232 236 66 72 119 211 48 249 310 250 156 63 80 131 201 205 306 330 263 149 191 50 351 129 181 156 147 205 140 128 186 137 169 271 226 263 245 222 279 284 38 236 63 238 199 222 250 268 243 255 255 251 245 258 280 283 280 284
322 310 300 311 352 330 301 297 274 157 80 58 55 91 175 234 252 229 239 289 270 344 58 327 45 32 302 343 289 290 193 313 69 124 27 131 255 169 198 213 239 110 140 132 265 75 210 224 269 328 260 12 177 263 110 96 75 189 175 84 84 236 134 215 204 159 279 351 343 241 211 198 203 269 283 267 285 277 248 254 256 261 247 253 293 279 275 274
331 321 315 287 358 311 334 323 315 98 83 64 85 186 207 191 227 189 271 162 48 114 213 37 73 45 274 301 305 60 321 146 312 80 317 184 212 195 221 210 179 188 138 170 193 189 21 274 348 314 86 75 242 109 315 245 182 246 99 202 213 127 96 92 82 64 64 51 252 170 312 283 299 313 302 342 349 289 317 277 210 237 235 247 264 268 266 266
335 334 359 327 321 321 315 311 320 83 74 92 109 243 205 271 193 166 261 183 278 135 76 158 281 171 248 264 252 333 261 55 279 105 272 237 303 201 232 266 178 217 216 140 260 178 151 247 320 58 217 6 313 177 318 335 174 89 179 237 177 144 121 130 255 357 60 147 263 58 245 303 17 292 320 340 319 281 293 264 242 234 235 244 246 253 255 255
325 311 266 284 264 321 293 283 23 55 85 108 207 224 198 204 214 165 131 103 328 36 77 146 275 144 274 146 296 186 308 146 274 108 236 199 256 169 140 181 47 140 175 220 176 278 124 299 307 281 106 275 19 18 350 258 5 116 187 266 120 213 196 328 91 300 269 267 278 310 291 259 199 257 328 296 280 283 270 269 257 236 236 239 247 259 265 268
306 23 319 282 325 333 296 334 67 91 78 127 216 247 244 226 260 212 200 142 129 120 220 250 222 321 134 179 231 313 201 190 217 183 108 244 110 209 195 162 341 178 305 167 134 240 47 193 291 293 137 312 345 111 231 241 354 63 336 23 260 109 182 125 196 181 117 272 43 291 23 273 200 215 205 247 240 247 263 263 229 224 221 227 234 246 254 264
14 12 298 281 314 330 302 14 61 53 92 194 203 218 171 301 250 257 284 180 234 150 231 227 261 298 203 221 147 175 268 147 169 240 130 265 222 280 208 357 159 59 116 359 131 106 143 112 253 288 281 351 232 186 219 166 160 51 107 310 343 343 218 103 13 142 188 180 176 212 327 277 256 215 187 239 236 230 209 218 225 220 229 232 232 237 246 246
353 131 268 291 328 331 350 41 69 135 169 268 151 207 11 212 336 317 94 334 329 344 171 176 161 202 217 28 280 178 228 184 198 196 202 288 175 291 356 140 161 131 225 61 114 224 90 124 201 321 298 229 235 300 226 192 187 178 168 196 177 127 139 167 263 34 88 123 236 130 254 273 271 166 208 230 244 234 234 225 244 241 233 233 238 245 236 246
344 297 258 317 338 12 57 174 277 26 129 182 222 168 234 158 327 271 68 2 87 247 2 133 202 178 152 223 183 198 153 200 212 241 252 199 261 207 309 10 354 179 127 185 187 238 155 143 97 208 201 204 242 283 301 347 119 183 200 244 171 148 104 111 204 259 46 246 101 163 73 268 239 207 209 230 246 237 239 213 241 238 237 241 246 242 245 231
147 229 276 318 339 21 52 291 296 342 201 242 330 304 80 289 183 177 138 286 273 161 346 213 209 180 248 196 227 196 179 243 162 210 215 220 260 223 153 127 217 359 90 335 67 226 108 105 116 284 309 306 316 318 88 46 104 341 286 84 124 192 187 178 168 177 142 150 126 18 214 261 284 232 221 246 255 268 263 227 237 254 255 258 251 254 245 255
264 282 307 290 36 77 156 226 236 250 262 305 132 260 263 212 147 153 193 213 179 184 198 214 331 209 256 117 132 215 188 277 220 190 282 181 268 115 218 296 286 201 152 216 139 217 134 271 126 359 352 339 342 353 356 352 79 219 211 216 202 75 75 144 106 195 259 214 170 133 239 271 272 285 285 268 281 275 266 246 209 245 259 254 255 253 264 267
290 250 225 295 358 103 210 204 160 202 234 240 231 262 235 283 214 210 170 223 185 183 149 263 207 175 212 167 179 89 238 201 307 242 163 181 245 108 352 162 6 264 45 302 259 333 153 185 128 168 206 236 251 274 258 239 218 205 230 175 216 159 140 124 220 120 188 269 141 166 247 252 266 314 297 268 277 291 265 241 227 223 249 264 268 262 265 271
310 332 304 334 10 251 236 87 102 172 253 244 309 259 180 250 301 287 166 249 172 181 200 331 350 99 76 86 235 218 234 233 189 258 170 256 280 345 163 133 193 269 309 309 340 6 196 28 177 181 182 211 215 203 247 116 71 193 233 182 198 197 192 110 104 120 210 190 178 231 218 273 300 276 225 264 254 252 262 268 252 249 249 248 250 260 258 259
335 176 325 318 339 4 261 10 355 10 244 176 238 199 212 223 243 313 176 233 120 177 239 189 194 164 245 123 231 259 224 238 297 14 230 216 264 256 195 189 203 229 269 316 274 85 66 250 245 216 229 234 174 189 194 163 159 219 143 215 189 177 182 163 171 217 136 103 255 251 232 238 260 273 270 241 254 253 264 262 271 270 256 246 249 255 270 273
179 261 80 205 137 256 36 295 200 230 274 120 244 54 213 229 198 225 22 238 25 220 184 305 166 222 190 189 159 225 214 218 154 218 59 249 333 308 334 194 236 190 160 299 61 154 155 198 275 141 250 248 224 221 143 171 220 188 198 161 172 194 169 193 222 195 148 183 219 251 139 193 254 258 269 248 223 235 237 242 240 249 273 271 270 270 267 262
243 345 271 335 321 238 169 219 93 222 244 209 286 211 248 228 236 214 180 292 225 256 183 242 213 213 210 207 174 245 179 254 259 259 187 235 214 169 255 311 246 83 164 112 196 210 104 247 215 171 262 291 274 204 189 201 247 216 212 198 187 172 203 207 218 199 191 226 233 257 140 256 263 270 269 275 153 225 244 239 273 279 257 262 272 271 267 266
275 221 289 348 279 295 270 274 240 174 237 213 210 234 224 234 243 256 330 201 263 268 174 224 239 180 206 211 212 235 228 216 211 203 232 193 280 174 235 196 138 352 211 191 183 266 161 274 117 171 295 273 294 341 142 211 193 244 238 198 203 211 225 224 232 238 235 280 275 267 299 287 275 260 268 284 245 224 263 261 241 245 256 262 265 266 264 262
302 332 315 303 292 269 270 222 240 233 248 234 216 254 82 248 253 222 251 195 218 244 168 226 228 219 220 217 235 241 249 205 217 236 218 171 234 209 173 270 138 144 161 173 203 203 161 260 53 71 271 290 329 35 289 62 194 236 268 256 236 207 198 207 210 216 174 218 236 269 281 259 262 277 233 253 271 206 236 249 255 253 250 253 254 256 258 258
336 306 294 267 267 222 258 229 214 112 239 232 196 261 200 237 218 181 262 234 224 228 208 215 214 176 243 238 240 238 246 242 257 261 37 232 273 237 237 246 167 161 176 184 114 149 185 159 182 150 221 258 272 77 2 303 357 275 225 225 225 211 211 244 242 210 209 206 205 216 236 238 249 282 315 280 234 242 244 248 258 266 254 241 242 242 249 254